This is the latest recevied weather packets stored in our database for station/object WA7CUG. If no packets are shown the sender has not sent any weather packets the latest 1 day(s).
| Time | Temp. | Humidity | Pressure | Rain* | Wind** | Luminosity | Snow |
|---|---|---|---|---|---|---|---|
| 1778003086 | 23.33° C | 42% | 1013.2 hPa | 0 mm | 0.89 m/s, 76° | 556 W/m² | - |
| 1778002782 | 22.78° C | 41% | 1013.4 hPa | 0 mm | 0.89 m/s, 128° | 546 W/m² | - |
| 1778002478 | 22.78° C | 42% | 1013.3 hPa | 0 mm | 1.34 m/s, 148° | 538 W/m² | - |
| 1778002175 | 22.78° C | 44% | 1013.5 hPa | 0 mm | 1.34 m/s, 265° | 525 W/m² | - |
| 1778001874 | 22.78° C | 42% | 1013.4 hPa | 0 mm | 0.89 m/s, 81° | 521 W/m² | - |
| 1778001572 | 22.78° C | 40% | 1013.6 hPa | 0 mm | 1.34 m/s, 254° | 512 W/m² | - |
| 1778001270 | 22.22° C | 44% | 1013.5 hPa | 0 mm | 0.89 m/s, 189° | 502 W/m² | - |
| 1778000966 | 22.22° C | 44% | 1013.6 hPa | 0 mm | 0.89 m/s, 74° | 492 W/m² | - |
| 1778000663 | 21.67° C | 44% | 1013.6 hPa | 0 mm | 0 m/s | 482 W/m² | - |
| 1778000359 | 21.67° C | 43% | 1013.8 hPa | 0 mm | 1.34 m/s, 201° | 473 W/m² | - |
| 1778000055 | 21.11° C | 47% | 1013.9 hPa | 0 mm | 0.45 m/s, 116° | 435 W/m² | - |
| 1777999750 | 21.11° C | 46% | 1013.6 hPa | 0 mm | 0.45 m/s, 125° | 444 W/m² | - |
| 1777999447 | 20.56° C | 44% | 1013.7 hPa | 0 mm | 0.45 m/s, 138° | 443 W/m² | - |
| 1777999145 | 20.56° C | 48% | 1013.7 hPa | 0 mm | 1.34 m/s, 13° | 432 W/m² | - |
| 1777998844 | 20.56° C | 47% | 1013.8 hPa | 0 mm | 0.89 m/s, 87° | 421 W/m² | - |
| 1777998542 | 20.56° C | 44% | 1013.7 hPa | 0 mm | 0 m/s | 408 W/m² | - |
| 1777998238 | 20.56° C | 47% | 1013.8 hPa | 0 mm | 0.45 m/s, 118° | 395 W/m² | - |
| 1777997935 | 20.56° C | 43% | 1013.8 hPa | 0 mm | 0.45 m/s, 170° | 386 W/m² | - |
| 1777997632 | 20.56° C | 42% | 1013.7 hPa | 0 mm | 0 m/s | 374 W/m² | - |
| 1777997329 | 20° C | 45% | 1013.8 hPa | 0 mm | 0 m/s | 362 W/m² | - |
| 1777997027 | 20° C | 47% | 1014 hPa | 0 mm | 0.89 m/s, 131° | 363 W/m² | - |
| 1777996723 | 20° C | 44% | 1013.8 hPa | 0 mm | 0.45 m/s, 167° | 332 W/m² | - |
| 1777996418 | 20° C | 49% | 1013.9 hPa | 0 mm | 0.45 m/s, 172° | 73 W/m² | - |
| 1777996116 | 20° C | 46% | 1013.9 hPa | 0 mm | 0 m/s | 305 W/m² | - |
| 1777995811 | 19.44° C | 49% | 1013.8 hPa | 0 mm | 0 m/s | 59 W/m² | - |
* Rain latest hour (hover to see other rain measurements)
** Current wind speed in m/s (hover to see current wind gust speed)